Location: Glendale
(37.4556°N, 88.6714°W)
Time: 11:58:42
(UTC+00:00)

Cosmos 1703 Rocket - Pass Details

Date: 08 December 2019
Orbit: 604 x 635 km, 82.5° (Epoch: 21 January)

Event Time Altitude Azimuth Distance (km) Brightness Sun altitude
Rises 00:01:13 0° 180° (S) 2,898 7.2 -16.4°
Reaches altitude 10° 00:03:26 10° 178° (S) 2,000 6.3 -16.8°
Maximum altitude 00:07:51 70° 95° (E) 673 3.5 -17.7°
Enters shadow 00:11:42 14° 13° (NNE) 1,779 5.6 -18.4°
